TimeEDT,TemperatureF,Dew PointF,Humidity,Sea Level PressureIn,VisibilityMPH,Wind Direction,Wind SpeedMPH,Gust SpeedMPH,PrecipitationIn,Events,Conditions,WindDirDegrees,DateUTC
12:53 AM,53.1,39.0,59,30.02,10.0,South,6.9,-,N/A,,Clear,190,2011-11-03 04:53:00
1:53 AM,53.1,39.0,59,30.02,10.0,SSW,4.6,-,N/A,,Clear,200,2011-11-03 05:53:00
2:53 AM,50.0,39.0,66,30.01,10.0,South,4.6,-,N/A,,Clear,190,2011-11-03 06:53:00
3:53 AM,48.9,39.0,69,30.00,10.0,South,4.6,-,N/A,,Clear,180,2011-11-03 07:53:00
4:53 AM,48.9,39.0,69,29.99,10.0,South,5.8,-,N/A,,Clear,180,2011-11-03 08:53:00
5:53 AM,48.0,39.0,71,29.99,10.0,NW,6.9,-,N/A,,Scattered Clouds,320,2011-11-03 09:53:00
6:53 AM,46.9,39.0,74,30.00,10.0,Calm,Calm,-,N/A,,Scattered Clouds,0,2011-11-03 10:53:00
7:53 AM,43.0,37.9,82,30.00,10.0,Calm,Calm,-,N/A,,Clear,0,2011-11-03 11:53:00
9:53 AM,46.9,41.0,80,30.02,10.0,Calm,Calm,-,N/A,,Partly Cloudy,0,2011-11-03 13:53:00
10:53 AM,50.0,39.9,68,30.01,10.0,Calm,Calm,-,N/A,,Clear,0,2011-11-03 14:53:00
11:53 AM,51.1,42.1,71,30.02,10.0,NNE,6.9,-,N/A,,Clear,20,2011-11-03 15:53:00
12:53 PM,51.1,41.0,68,29.98,9.0,NE,12.7,-,N/A,,Clear,40,2011-11-03 16:53:00
1:53 PM,52.0,44.1,74,29.96,7.0,ENE,12.7,18.4,N/A,,Clear,60,2011-11-03 17:53:00
2:42 PM,53.6,44.6,72,29.96,6.0,NE,9.2,-,N/A,,Haze,50,2011-11-03 18:42:00
2:53 PM,52.0,44.1,74,29.96,7.0,NE,10.4,-,N/A,,Mostly Cloudy,40,2011-11-03 18:53:00
3:53 PM,52.0,44.1,74,29.97,8.0,ENE,13.8,24.2,N/A,,Overcast,60,2011-11-03 19:53:00
4:53 PM,51.1,43.0,74,29.97,10.0,NE,10.4,19.6,N/A,,Overcast,40,2011-11-03 20:53:00
6:16 PM,50.0,42.8,76,29.99,10.0,NE,6.9,-,N/A,,Overcast,50,2011-11-03 22:16:00
8:53 PM,48.9,39.9,71,30.05,10.0,NNE,12.7,21.9,0.00,,Overcast,30,2011-11-04 00:53:00
9:53 PM,48.9,39.0,69,30.07,10.0,NE,13.8,21.9,N/A,,Overcast,40,2011-11-04 01:53:00
10:53 PM,48.0,37.9,68,30.10,10.0,NNE,13.8,18.4,N/A,,Overcast,30,2011-11-04 02:53:00
11:04 PM,48.2,37.4,66,30.09,10.0,NNE,15.0,27.6,N/A,,Overcast,30,2011-11-04 03:04:00
11:53 PM,46.9,36.0,66,30.10,10.0,NNE,15.0,24.2,N/A,,Overcast,20,2011-11-04 03:53:00